Find Jilin-1 GaoFen 07A 04 xing

NORAD ID: 68693 Int'l Des: 2026-080 Owner: CGSTL Country: CN Constellation: jilin-1 operational
LEOCIRCULARRETROGRADESSO

リアルタイム位置

3D地球を読み込み中...

Jilin-1 GaoFen 07A 04 xingについて

説明を読み込み中...

次回通過

Passes for default location (London). Set your location on the main map for personalized predictions.

高度履歴

Loading altitude history...

軌道要素

1 68693U 26080C 26105.07434472 .00000506 00000-0 35821-4 0 9997
2 68693 97.6624 180.7182 0013498 278.6118 81.3581 15.09294853 140
Epoch: Apr 15, 2026 • Age: 31 hours

現在のステータス

高度 551.9 km
速度 7.59 km/s
衛星直下点 43.83°N, 35.62°E
打ち上げ日 Apr 14, 2026
運用期間 2 days
タイプ other

技術仕様

分類 Payload
質量 50.00 kg
乾燥質量 50.00 kg
総質量 50.00 kg
長さ 1.50 m
直径 1.00 m
スパン 1.50 m
形状 Box
製造者 CGSTL
バスタイプ JL-1GF07
フェーズステータス In Orbit
所有者/国 CGSTL/CN

Most Searched